Location: Garshuizen
(53.3675°N, 6.7248°E)
Time: 12:05:04
(UTC+00:00)

Cosmos 2082 Rocket - Pass Details

Date: 15 May 2026
Orbit: 832 x 852 km, 71.0° (Epoch: 5 June)

Event Time Altitude Azimuth Distance (km) Brightness Sun altitude
Rises 20:39:01 0° 223° (SW) 3,412 5.3 -8.8°
Reaches altitude 10° 20:41:30 10° 227° (SW) 2,480 4.6 -9.1°
Maximum altitude 20:47:08 60° 307° (NW) 970 2.9 -9.6°
Drops below altitude 10° 20:52:48 10° 28° (NNE) 2,487 5.0 -10.1°
Sets 20:55:18 0° 32° (NNE) 3,423 5.7 -10.3°
